Location: Newport
(44.6370°N, 124.0520°W)
Time: 00:17:24
(UTC-08:00)

Tiangong 2 - Pass Details

Date: 16 October 2017
Orbit: 386 x 390 km, 42.8° (Epoch: 17 December)

Event Time Altitude Azimuth Distance (km) Brightness Sun altitude
Exits shadow 06:17:20 29° 250° (WSW) 739 1.9 -14.3°
Maximum altitude 06:18:34 49° 192° (SSW) 514 1.5 -14.0°
Drops below altitude 10° 06:21:41 10° 116° (ESE) 1,422 5.0 -13.5°
Sets 06:23:48 0° 111° (ESE) 2,277 6.4 -13.1°
